www.pogodaiklimat.ru

Погода и климат >> Архив погоды >> Россия >> Якутия >> Тонгулах


ПОГОДА в Тонгулахе

  • Прогноз погоды в Тонгулахе
  • Монитор погоды в Тонгулахе

АРХИВ ПОГОДЫ в Тонгулахе

Время (UTC), дата Ветер
(напр.,м/с)
 
Видим.   Явления Облачность Т
(С)
Тd
(С)
f
(%)
Тe
(С)
Тes
(С)
Комфортность P
(гПа)
Po
(гПа)
Тmin
(С)
Tmax
(С)
R
(мм)
R24
(мм)
S
(см)
12 13.05 штиль 0 50 км ясно +12.8 -4.4 30 +13 +13 1007.0 983.3 +18.3
15 13.05 штиль 0 20 км ясно +2.8 -7.8 46 +3 +3 1008.3 983.8
18 13.05 штиль 0 20 км ясно -1.0 -8.1 59 -2 -2 1009.1 984.2
21 13.05 Ю 1 50 км 9/0
[Ci sp]
+3.4 -2.6 65 +2 +3 1009.4 985.0
00 14.05 Ю 2 50 км 8/0
[Ci sp]
+14.4 +0.2 38 +14 +20 1008.0 984.5 -1.4
03 14.05 Ю 4 50 км 5/0
[Ci sp]
+18.7 +0.4 29 +19 +26 1006.4 983.2
06 14.05 Ю 4 50 км 10/3 1000 м
[Sc Cs]
+19.9 +0.1 26 +20 +24 1004.8 981.9
09 14.05 ЮВ 3 50 км 10/0
[As trans Cs]
+19.1 +0.8 29 +19 +21 1004.5 981.5
12 14.05 Ю 1 50 км 10/0
[As trans Cs]
+14.3 +3.5 48 +15 +15 1006.1 982.2 +20.2
15 14.05 ЮВ 1 20 км 6/0
[Ac trans Ci sp]
+6.4 -0.1 63 +6 +6 1006.3 982.2
18 14.05 штиль 0 20 км 4/0
[Ci sp]
+3.6 -1.1 71 +3 +3 1005.3 982.0
21 14.05 штиль 0 50 км 10/0
[Cs]
+0.4 -0.6 93 -1 0 1006.3 981.7
00 15.05 штиль 0 50 км 10/0
[Cs]
+10.5 +5.7 72 +10 +17 1004.8 981.1 +0.3
03 15.05 Ю 1 50 км 10/3 600 м
[Cu med, cong Ci fib]
+17.1 +7.1 52 +18 +26 1002.9 979.8
06 15.05 ЮВ 1 50 км 8/8 600 м
[Sc]
+19.7 +5.0 38 +21 +24 комфорт 1001.3 978.4
09 15.05 ЮВ 1 50 км 6/6 1000 м
[Sc]
+20.1 +7.5 44 +22 +24 комфорт 1000.7 977.8
12 15.05 штиль 0 50 км 8/6 600 м
[Cb cap]
+17.3 +9.9 62 +17 +17 1001.2 978.1 +21.3
15 15.05 штиль 0 20 км 8/8 600 м
[Cb cap]
+10.0 +4.4 68 +10 +10 1002.2 978.5
18 15.05 штиль 0 20 км 8/8 1000 м
[Sc diur, vesp]
+8.0 +4.3 77 +7 +7 1002.9 979.0
21 15.05 штиль 0 50 км 6/0
[Ac trans]
+6.0 +4.1 88 +5 +6 1004.1 980.0
00 16.05 Ю 1 50 км 3/3 1000 м
[Cu med, cong]
+12.3 +9.1 81 +12 +18 1003.2 979.7 +5.8
03 16.05 Ю 2 50 км 3/3 600 м
[Cu med, cong]
+21.1 +8.9 46 +22 +31 комфорт 1001.3 978.5
06 16.05 ЮВ 2 50 км 6/6 1000 м
[Cu med, cong]
+23.3 +5.2 31 +23 +27 комфорт 999.7 977.1
09 16.05 СВ 2 50 км 8/8 1000 м
[Cu med, cong]
+22.1 +6.2 36 +23 +23 комфорт 999.3 976.7
12 16.05 штиль 0 50 км 9/9 600 м
[Cb cap]
+18.1 +7.7 51 +18 +18 1000.3 977.4 +23.5
15 16.05 СВ 3 20 км 8/3 600 м
[Cb cap Ac cast]
+15.8 +8.1 60 +15 +15 1000.7 977.5
18 16.05 СВ 2 20 км 8/0
[Ac cast]
+13.5 +7.2 66 +13 +13 1000.9 977.5
21 16.05 штиль 0 50 км 8/0
[Ac trans]
+4.2 +2.7 90 +3 +4 1002.0 977.8
00 17.05 ЮВ 2 50 км 10/0
[As op]
+9.4 +4.2 70 +8 +9 1003.2 979.4 +3.4
03 17.05 СВ 2 50 км {снег} 10/0
[As op]
+10.2 +7.9 86 +9 +11 1002.9 979.2
06 17.05 СВ 2 50 км 10/0
[Ac As]
+11.8 +5.8 67 +11 +14 1002.5 979.0
09 17.05 СВ 2 50 км 10/0
[Ac As]
+11.4 +4.8 64 +10 +11 1003.5 979.9
12 17.05 штиль 0 50 км 8/0
[Ac trans Ci fib]
+10.0 +3.9 66 +10 +10 1003.9 980.2 +18.1 0.0
15 17.05 штиль 0 20 км дождь {снег} 10/0
[As op]
+8.8 +4.3 73 +8 +8 1004.0 980.2
18 17.05 штиль 0 20 км дождь {снег} 10/0
[As op]
+6.8 +4.3 84 +6 +6 1004.0 980.0
21 17.05 С 2 20 км слаб. дождь 10/0
[As op]
+1.6 +1.2 97 -2 -2 1004.6 980.1
00 18.05 С 3 50 км {дождь} 10/9 600 м
[Sc As op]
+2.0 +1.2 94 -2 -2 1005.7 981.3 +1.4 10
03 18.05 С 3 50 км {дождь} 10/4 300 м
[St As op]
+2.3 +1.8 96 -2 -1 1005.9 981.5
06 18.05 С 4 50 км {дождь} 10/10 300 м
[St]
+3.0 +1.2 88 -2 -2 1006.1 981.8
09 18.05 С 4 50 км 10/10 1000 м
[St]
+2.1 +1.3 94 -3 -3 1007.3 982.8
12 18.05 СЗ 3 50 км {дождь} 10/3 1000 м
[Sc As op]
+1.0 +0.5 96 -4 -4 1008.6 984.0 +3.5 0.6
15 18.05 СЗ 2 10 км слаб. дождь 10/0
[As op]
+0.4 -0.2 96 -3 -3 1009.0 985.0
18 18.05 СЗ 1 20 км {дождь} 10/0
[Ac As]
-0.3 -0.9 96 -3 -3 1010.3 985.5
21 18.05 СЗ 1 50 км 10/0
[Ac trans Ci sp]
-1.4 -3.6 85 -4 -3 1011.8 986.9
00 19.05 СЗ 3 50 км 8/0
[Ac trans]
+0.8 -3.4 73 -3 -0 1012.6 987.8 -1.5 0.9
03 19.05 СЗ 5 50 км ясно +5.8 -3.2 52 +2 +8 1012.5 988.1
06 19.05 С 3 50 км 10/0
[Ci fib]
+7.7 -2.2 49 +5 +12 1012.8 988.6
12 19.05 С 1 50 км 4/0
[Ci fib]
+5.8 -5.6 44 +5 +5 1014.8 990.4 +9.3
15 19.05 штиль 0 20 км ясно -3.0 -9.7 60 -4 -4 1016.1 990.9
18 19.05 штиль 0 20 км ясно -4.1 -10.0 63 -5 -5 1016.6 991.3
21 19.05 штиль 0 50 км 4/0
[Ac trans]
-3.8 -6.0 85 -5 -4 1015.3 991.1
00 20.05 штиль 0 50 км 8/0
[Ac trans]
+4.2 -5.6 49 +4 +9 1015.8 991.3 -4.2
03 20.05 СЗ 4 50 км 10/8 1000 м
[Sc]
+10.1 -4.9 34 +8 +9 1014.1 990.1
06 20.05 СЗ 3 50 км 8/5 1000 м
[Sc Ci fib]
+11.7 -3.3 35 +11 +14 1012.9 989.0
09 20.05 СЗ 1 50 км 8/0
[Ac trans]
+11.8 -4.8 31 +12 +14 1012.8 988.9

 

Местоположение метеостанции Тонгулах (Якутия, Россия): широта 61.92 долгота 124.50 высота над уровнем моря 199 м.

В архиве по умолчанию представлена погода в Тонгулахе за последнюю неделю. Архивные данные за месяц целиком и за предыдущие месяцы, начиная с января 2011 года, Вы можете получить, выбрав интересующий диапазон дат из раскрывающегося списка и нажав кнопку "Ввод!".


*Определитесь, кто Вы:
робот инопланетянин человек

Внимание! Время в таблицах - всемирное. Для получения местного времени необходимо прибавить поправку, которая равна 9 ч.

Смотрите также архив погоды в соседних городах и на ближайших метеорологических станциях:

Погода в Исити (Якутия, Россия) (130 км)
Погода в Бердигестяхе (Якутия, Россия) (136 км)
Погода в Хатырык-Хомо (Якутия, Россия) (226 км)
Погода в Покровске (Якутия, Россия) (247 км)
Погода в Вилюйске (Якутия, Россия) (253 км)
Погода в Якутске (Якутия, Россия) (267 км)
Погода в Сангаре (Якутия, Россия) (269 км)
Погода в Олекминске (Якутия, Россия) (277 км)
Погода в Верхневилюйске (Якутия, Россия) (278 км)
Погода в Намцах (Якутия, Россия) (278 км)

Пояснения к столбцам:

Ветер - указаны скорость ветра в м/с - средняя за 10 мин, порывы в срок и между сроками (в фигурных скобках) и направление, откуда дует ветер: С - северный, СВ - северо-восточный, В - восточный, ЮВ - юго-восточный, Ю - южный, ЮЗ - юго-западный, З - западный, СЗ - северо-западный.
Видимость - горизонтальная дальность видимости в метрах или километрах. При видимости от 1 до 10 км при отсутствии осадков обычно наблюдается дымка, при ухудшении видимости до 1 км и менее - туман. В сухую погоду видимость может ухудшаться дымом, пылью или мглою.
Явления - указаны атмосферные явления, наблюдавшиеся в срок или в последний час перед сроком; фигурными скобками обозначены явления, наблюдавшиеся между сроками (за 1-3 часа до срока); квадратными скобками обозначены град или гололедные отложения с указанием их диаметра в мм.
Облачность - указаны через наклонную черту общая и нижняя облачность в баллах и высота нижней границы облаков в метрах; квадратными скобками обозначены формы облаков: Ci - перистые, Cs - перисто-слоистые, Cc - перисто-кучевые, Ac - высококучевые, As - высокослоистые, Sc - слоисто-кучевые, Ns - слоисто-дождевые, Cu - кучевые, Cb - кучево-дождевые. Подробнее классификацию облаков см. в Атласе облаков (PDF).
T - Температура воздуха - температура, измеренная на высоте 2 м над землей.
Td - Температура точки росы - температура, при понижении до которой содержащийся в воздухе водяной пар достигнет насыщения.
f - Относительная влажность воздуха - влажноcть воздуха, измеренная на высоте 2 м над землей.
Te - Эффективная температура - температура, которую ощущает одетый по сезону человек в тени. Характеристика душности погоды. При расчете учитывается влияние влажности воздуха и скорости ветра на теплоощущения человека.
Tes - Эффективная температура на солнце - температура, которую ощущает человек, с поправкой на солнечный нагрев. Характеристика знойности погоды. Зависит от высоты солнца над горизонтом, облачности и скорости ветра. Ночью, в пасмурную погоду, а также при ветре 12 м/с и более поправка равна нулю.
P - Атмосферное давление - приведенное к уровню моря атмосферное давление.
Po - Атмосферное давление - измеренное на уровне метеостанции атмосферное давление.
Tmin - Минимальная температура - минимум температуры воздуха на высоте 2 м над землей.
Tmax - Максимальная температура - максимум температуры воздуха на высоте 2 м над землей.
R - Количество осадков - Количество выпавших осадков за период времени, мм. При наведении курсора мыши на число - период времени, за который выпало указанное количество осадков.
R24 - Количество осадков - Количество выпавших осадков за 24 часа, мм.
S - Снежный покров - Высота снежного покрова, см. При наведении курсора мыши на число - состояние снежного покрова и степень покрытия местности в баллах.